Tracking 18945 objects as of 20-Jan-2018
HD Live streaming from Space Station
objects crossing your sky now

RADUGA 21

Track RADUGA 21 now!
RADUGA 21 is classified as:


NORAD ID: 18631
Int'l Code: 1987-100A
Perigee: 35,781.7 km
Apogee: 35,810.0 km
Inclination: 15.0 °
Period: 1,436.2 minutes
Semi major axis: 42166 km
RCS: 3.9811 m2 (large)
Launch date: December 10, 1987
Source: Commonwealth of Independent States (former USSR) (CIS)
Launch site: TYURATAM MISSILE AND SPACE COMPLEX (TTMTR)
aabbcc
Your satellite tracking list
Your tracking list is empty




NASA's NSSDC Master Catalog

Two Line Element Set (TLE):
1 18631U 87100A   18019.28448944 -.00000294 +00000-0 +00000-0 0  9993
2 18631 015.0354 352.3385 0003355 290.3736 247.8651 01.00264425110294
Source of the keplerian elements: AFSPC